Home > Weather > Dover > Past weeks

Flag for USA Past Weather in Dover, Delaware, USA — Yesterday and Last 2 Weeks

Now
74 °F

Clear.


Feels Like: 69 °F
Forecast: 76 / 85 °F
Wind: 2 mph from North

Location: Dover Air Force Base

Current Time: Jul 28, 2016 at 10:10:40 PM

Latest Report: Jul 28, 2016 at 9:58 PM


Visibility: 10 mi

Pressure: 29.82 "Hg

Humidity: 100%

Dew Point: 74 °F

Location of DoverLocation

Past Weather in Dover — Graph

°F

Dover Temperature Yesterday

Maximum temperature yesterday: 89 °F (at 10:58 AM)
Minimum temperature yesterday: 78 °F (at 9:58 PM)
Average temperature yesterday: 83 °F

High & Low Weather Summary for the Past Weeks

 TemperatureHumidityPressure
High97 °F (Jul 25, 3:58 PM)100% (Jul 13, 7:58 PM)30.21 "Hg (Jul 13, 7:58 PM)
Low66 °F (Jul 21, 5:58 AM)47% (Jul 22, 3:58 PM)29.83 "Hg (Jul 14, 5:58 PM)
Average81 °F82%29.99 "Hg
* Reported Jul 13 7:58 PM — Jul 28 7:58 PM, Dover, Weather by CustomWeather, © 2016

Note: Actual official high and low records may vary slightly from our data, if they occured in-between our weather recording intervals... More about our weather records

Advertising

Dover Weather History for the Previous 24 Hours

Scroll right to see more
 ConditionsComfort  
Time TempWeatherWind HumidityBarometerVisibility
7:58 PM
Thu, Jul 28
76 °FPartly sunny.3 mph100%29.86 "Hg10 mi
7:04 PM75 °FSunny.16 mph100%29.83 "Hg10 mi
6:58 PM75 °FThundershowers. Scattered clouds.10 mph100%29.85 "Hg8 mi
5:58 PM74 °FLight rain. Broken clouds.13 mph100%29.87 "Hg10 mi
4:58 PM82 °FThundershowers. Partly sunny.9 mph82%29.84 "Hg10 mi
2:58 PM77 °FThundershowers. Broken clouds.8 mph100%29.88 "Hg10 mi
1:58 PM87 °FSunny.17 mph75%29.84 "Hg10 mi
11:58 AM88 °FScattered clouds.10 mph73%29.89 "Hg10 mi
9:58 AM87 °FSunny.7 mph75%29.91 "Hg10 mi
8:58 AM84 °FSunny.3 mph85%29.91 "Hg10 mi
7:58 AM81 °FSunny.2 mph100%29.91 "Hg10 mi
6:58 AM76 °FClear.No wind100%29.91 "Hg7 mi
5:58 AM76 °FClear.No wind100%29.90 "Hg10 mi
4:58 AM78 °FPassing clouds.3 mph100%29.90 "Hg10 mi
3:58 AM79 °FPassing clouds.1 mph97%29.90 "Hg10 mi
2:58 AM79 °FPassing clouds.1 mph99%29.90 "Hg10 mi
1:58 AM77 °FPassing clouds.No wind100%29.91 "Hg10 mi
12:58 AM77 °FClear.No wind100%29.91 "Hg10 mi
11:58 PM
Wed, Jul 27
80 °FPassing clouds.5 mph93%29.91 "Hg10 mi
10:58 PM80 °FPassing clouds.5 mph94%29.91 "Hg10 mi
Weather by CustomWeather, © 2016

See weather overviewHow to use our weather pages